AirNav   Duncan Aviation - Near you to keep you flying
 
 1769 users online  

2OH9 Caesar Creek Soaring Club Gliderport
Waynesville, Ohio, USA

GOING TO WAYNESVILLE?


FAA INFORMATION EFFECTIVE 11 AUGUST 2022

Location

FAA Identifier: 2OH9
Lat/Long: 39-28-36.2170N 084-05-37.7620W
39-28.603617N 084-05.629367W
39.4767269,-84.0938228
(estimated)
Elevation: 940 ft. / 287 m (estimated)
Variation: 04W (1985)
From city: 3 miles S of WAYNESVILLE, OH
Time zone: UTC -4 (UTC -5 during Standard Time)
Zip code: 45068

Gliderport Operations

Gliderport use: Private use. Permission required prior to landing
Activation date: 06/1969
Control tower: no
ARTCC: INDIANAPOLIS CENTER
FSS: DAYTON FLIGHT SERVICE STATION
Attendance: DAYLIGHT HOURS
Wind indicator: yes
Segmented circle: yes

Gliderport Communications

WX AWOS-3 at I68 (7 nm W): 120.55 (513-934-5500)
WX ASOS at MGY (9 nm NW): 118.375 (937-885-2171)
WX AWOS-3 at I66 (11 nm E): 124.175 (937-382-1376)
WX AWOS-3 at I19 (14 nm N): 118.525 (937-372-4668)
WX ASOS at ILN (14 nm E): PHONE 937-383-7334
WX AWOS-3 at MWO (14 nm W): 120.025 (513-422-3505)
  • DURING GLIDER FLT OPN GUARDS 123.3.

Nearby radio navigation aids

VOR radial/distance  VOR name  Freq  Var
MXQr286/13.8MIDWEST VOR/DME112.9004W
DQNr158/35.3DAYTON VOR/DME114.5001W
CVGr050/39.6CINCINNATI VORTAC117.3004W

 
NDB name  Hdg/Dist  Freq  Var  ID
ONIDA124/12.322304WMW -- .--
CUBLA313/12.529907WHW .... .--
HOOK FIELD099/16.423904WHKF .... -.- ..-.
SPORTYS017/24.724504WPWF .--. .-- ..-.
COURT HOUSE263/33.341406WCSS -.-. ... ...

Gliderport Services

Airframe service: NONE
Powerplant service: NONE

Runway Information

Runway 9/27

Dimensions: 2800 x 150 ft. / 853 x 46 m
Surface: turf
RUNWAY 9  RUNWAY 27
Traffic pattern: rightleft
Obstructions: trees
20' TO 40' TREES WI BNDRY.
none

Gliderport Ownership and Management from official FAA records

Ownership: Privately-owned
Owner: SOARING SOCIETY OF DAYTON
5385 ELBON RD
WAYNESVILLE, OH 45068
Phone 513-932-7627
Manager: JON STEWART
5385 ELBON RD
WAYNESVILLE, OH 45068
Phone 513-932-7627

Gliderport Operational Statistics

Aircraft based on the field: 36
Single engine airplanes: 4
Gliders airplanes: 32
  • 24 SAILPLANES.
    

Additional Remarks

FOR CD CTC COLUMBUS APCH AT 614-338-8537

Instrument Procedures

There are no published instrument procedures at 2OH9.

Some nearby airports with instrument procedures:

I68 - Warren County Airport/John Lane Field (7 nm W)
KMGY - Dayton-Wright Brothers Airport (9 nm NW)
I66 - Clinton Field Airport (11 nm E)
I19 - Greene County/Lewis A Jackson Regional Airport (14 nm N)
KILN - Wilmington Air Park (14 nm E)
KMWO - Middletown Regional Airport/Hook Field (14 nm W)
 
Loc | Ops | Rwys | IFR | FBO | Links
Com | Nav | Svcs | Stats | Notes
Area around 2OH9 (Caesar Creek Soaring Club Gliderport)
 
Road maps at: MapQuest Bing Google
 
Aerial photo
WARNING: Photo may not be current or correct
Aerial photo of 2OH9 (Caesar Creek Soaring Club Gliderport)
Do you have a better or more recent aerial photo of Caesar Creek Soaring Club Gliderport that you would like to share? If so, please send us your photo.

 
Sectional chart

 
Airport distance calculator
Flying to Caesar Creek Soaring Club Gliderport? Find the distance to fly.

From to 2OH9

Sunrise and sunset
Times for 18-Aug-2022
 Local
(UTC-4)
 Zulu
(UTC)
Morning civil twilight06:2410:24
Sunrise06:5310:53
Sunset20:2800:28
Evening civil twilight20:5600:56

Current date and time
Zulu (UTC)  18-Aug-2022 16:57:29
Local (UTC-4)  18-Aug-2022 12:57:29
 
METAR
KI68 
7nm W 
181255Z AUTO 00000KT 10SM CLR 20/17 A3006 RMK AO1 T01950168
KMGY 
10nm NW 
181653Z AUTO VRB04KT 10SM BKN044 26/16 A3004 RMK AO2 SLP166 T02560156
KILN 
14nm E 
181654Z AUTO VRB05KT 8SM FEW037 24/14 A3005 RMK AO2 SLP169 T02440144
KMWO 
14nm W 
181635Z AUTO 00000KT 10SM SCT041 26/14 A3005 RMK AO2 T02550143
TAF
KILN 
14nm E 
181120Z 1812/1912 36003KT 5SM BR SKC FM181400 36003KT P6SM SKC FM181700 34005KT P6SM SCT045 FM190100 08003KT P6SM FEW050 FM190800 13003KT 5SM BR SKC
NOTAMs
Click for the latest NOTAMs
NOTAMs are issued by the DoD/FAA and will open in a separate window not controlled by AirNav.

 

 
 

Would you like to see your business listed on this page?

 If your business provides an interesting product or service to pilots, flight crews, aircraft, or users of the Caesar Creek Soaring Club Gliderport, you should consider listing it here.  To start the listing process, click on the button below
 
Add a business
 

Other Pages about Caesar Creek Soaring Club Gliderport

Update a link
 
Copyright © AirNav, LLC. All rights reserved. Privacy Policy  Contact